KD4UFD Weather Reports


Display with metric or nautical units.
time (UTC)temp
F
wind
direction
speed
MPH
gust
MPH
rain 1hr
in
rain 24hr
in
rain mn
in
humidity
%
barometer
mb
20260505075215 53 247 0.0 0.0 0.00 0.00 0.00 81 1012.5
20260505074712 53 247 0.0 0.0 0.00 0.00 0.00 80 1012.7
20260505074209 54 247 0.0 0.0 0.00 0.00 0.00 79 1012.7
20260505073707 55 247 0.0 0.0 0.00 0.00 0.00 79 1012.7
20260505073205 55 247 0.0 0.0 0.00 0.00 0.00 78 1013.0
20260505072700 56 247 0.0 0.0 0.00 0.00 0.00 76 1012.7
20260505072157 57 278 0.0 0.0 0.00 0.00 0.00 76 1012.9
20260505071652 57 279 0.0 0.0 0.00 0.00 0.00 75 1012.9
20260505071150 58 278 0.0 0.0 0.00 0.00 0.00 75 1013.0
20260505070647 58 257 0.0 0.0 0.00 0.00 0.00 74 1013.2
20260505070143 58 245 0.0 0.0 0.00 0.00 0.00 74 1012.9
20260505065639 59 245 0.0 0.0 0.00 0.00 0.00 73 1012.8
20260505065136 59 245 0.0 0.0 0.00 0.00 0.00 72 1012.9
20260505064633 60 245 0.0 0.0 0.00 0.00 0.00 71 1013.0
20260505064131 60 236 0.0 0.0 0.00 0.00 0.00 71 1012.9
20260505063628 60 338 1.0 1.0 0.00 0.00 0.00 71 1012.9
20260505063124 61 223 0.0 0.0 0.00 0.00 0.00 70 1012.9
20260505062621 61 233 0.0 1.0 0.00 0.00 0.00 70 1012.7
20260505062118 61 316 2.0 2.0 0.00 0.00 0.00 71 1012.7
20260505061615 60 328 1.0 2.0 0.00 0.00 0.00 71 1013.0
20260505061113 60 341 1.0 1.0 0.00 0.00 0.00 71 1012.7
20260505060610 60 330 0.0 0.0 0.00 0.00 0.00 71 1012.6
20260505060107 60 281 0.0 0.0 0.00 0.00 0.00 71 1012.9
20260505055602 61 265 0.0 0.0 0.00 0.00 0.00 70 1012.9
20260505055059 61 300 1.0 1.0 0.00 0.00 0.00 70 1012.8
20260505054557 60 315 0.0 0.0 0.00 0.00 0.00 71 1012.8
20260505054055 60 344 0.0 0.0 0.00 0.00 0.00 71 1012.6
20260505053552 60 217 0.0 0.0 0.00 0.00 0.00 71 1012.6
20260505053048 60 218 0.0 0.0 0.00 0.00 0.00 71 1012.7
20260505052545 60 249 0.0 0.0 0.00 0.00 0.00 71 1012.7
20260505052043 60 249 0.0 0.0 0.00 0.00 0.00 70 1012.6
20260505051539 60 237 0.0 0.0 0.00 0.00 0.00 70 1012.7
20260505051037 61 334 0.0 0.0 0.00 0.00 0.00 69 1012.5
20260505050535 61 307 1.0 1.0 0.00 0.00 0.00 69 1012.7
20260505041503 62 241 0.0 0.0 0.00 0.00 0.00 67 1012.6
20260505041000 61 318 0.0 0.0 0.00 0.00 0.00 68 1012.5
20260505040458 61 236 0.0 0.0 0.00 0.00 0.00 68 1012.6
20260505035954 61 235 0.0 0.0 0.00 0.00 0.00 68 1012.6
20260505035450 61 235 0.0 0.0 0.00 0.00 0.00 68 1012.7
20260505034948 62 234 0.0 0.0 0.00 0.00 0.00 68 1012.5
20260505034444 62 235 0.0 0.0 0.00 0.00 0.00 66 1012.6
20260505033941 63 320 0.0 0.0 0.00 0.00 0.00 66 1012.6
20260505033438 63 325 0.0 0.0 0.00 0.00 0.00 66 1012.4
20260505032936 63 335 0.0 0.0 0.00 0.00 0.00 65 1012.6
20260505032433 63 311 0.0 0.0 0.00 0.00 0.00 64 1012.5
20260505031929 63 233 0.0 0.0 0.00 0.00 0.00 64 1012.6
20260505031427 64 232 0.0 0.0 0.00 0.00 0.00 64 1012.6
20260505030923 64 234 0.0 0.0 0.00 0.00 0.00 63 1012.6
20260505030419 64 229 0.0 0.0 0.00 0.00 0.00 62 1012.7
20260505025915 64 227 0.0 0.0 0.00 0.00 0.00 62 1012.8
20260505025412 65 228 0.0 0.0 0.00 0.00 0.00 61 1012.9
20260505024911 66 274 0.0 0.0 0.00 0.00 0.00 60 1012.6
20260505024408 66 232 1.0 1.0 0.00 0.00 0.00 59 1012.8
20260505023905 66 221 0.0 0.0 0.00 0.00 0.00 60 1012.8
20260505023402 66 299 1.0 1.0 0.00 0.00 0.00 58 1012.7
20260505022859 67 218 0.0 1.0 0.00 0.00 0.00 60 1012.7
20260505022356 67 285 1.0 2.0 0.00 0.00 0.00 58 1012.7
20260505021854 67 251 1.0 2.0 0.00 0.00 0.00 58 1012.8
20260505021350 67 192 0.0 0.0 0.00 0.00 0.00 58 1012.8
20260505020846 68 225 0.0 1.0 0.00 0.00 0.00 58 1012.7
20260505020341 68 234 2.0 3.0 0.00 0.00 0.00 56 1012.6
20260505015839 68 218 1.0 1.0 0.00 0.00 0.00 57 1012.6
20260505015336 69 229 3.0 3.0 0.00 0.00 0.00 57 1012.5
20260505014833 68 221 5.0 7.0 0.00 0.00 0.00 58 1012.6
20260505014330 68 230 0.0 1.0 0.00 0.00 0.00 60 1012.7
20260505013827 67 250 3.0 5.0 0.00 0.00 0.00 61 1012.4
20260505013324 67 238 2.0 3.0 0.00 0.00 0.00 62 1012.5
20260505012822 66 229 3.0 5.0 0.00 0.00 0.00 64 1012.6
20260505012320 65 225 0.0 0.0 0.00 0.00 0.00 66 1012.5
20260505011815 65 227 0.0 0.0 0.00 0.00 0.00 65 1012.4
20260505011312 65 229 0.0 0.0 0.00 0.00 0.00 65 1012.4
20260505010808 66 234 0.0 0.0 0.00 0.00 0.00 65 1012.3
20260505010304 66 206 0.0 0.0 0.00 0.00 0.00 64 1012.3
20260505005801 67 185 0.0 0.0 0.00 0.00 0.00 63 1012.2
20260505005258 67 224 0.0 0.0 0.00 0.00 0.00 62 1012.0
20260505004755 68 238 0.0 0.0 0.00 0.00 0.00 61 1012.1
20260505004251 68 223 0.0 0.0 0.00 0.00 0.00 60 1012.0
20260505003749 68 223 0.0 0.0 0.00 0.00 0.00 59 1012.0
20260505003246 69 225 0.0 0.0 0.00 0.00 0.00 58 1012.2
20260505002742 69 221 1.0 2.0 0.00 0.00 0.00 58 1011.9
20260505002240 70 226 0.0 0.0 0.00 0.00 0.00 57 1011.9
20260505001737 71 212 2.0 2.0 0.00 0.00 0.00 55 1011.8
20260505001235 71 179 1.0 2.0 0.00 0.00 0.00 55 1012.0
20260505000731 71 205 0.0 1.0 0.00 0.00 0.00 56 1012.1
20260505000229 72 237 1.0 1.0 0.00 0.00 0.00 54 1011.7
20260504235725 72 240 3.0 5.0 0.00 0.00 0.00 53 1011.8
20260504235221 72 237 3.0 5.0 0.00 0.00 0.00 55 1011.9
20260504234719 73 208 1.0 1.0 0.00 0.00 0.00 56 1011.7
20260504234216 73 204 0.0 1.0 0.00 0.00 0.00 57 1012.0
20260504233712 73 225 3.0 3.0 0.00 0.00 0.00 55 1011.8
20260504233209 73 187 0.0 1.0 0.00 0.00 0.00 55 1011.8
20260504232706 73 204 1.0 1.0 0.00 0.00 0.00 54 1011.9
20260504232203 74 218 1.0 1.0 0.00 0.00 0.00 54 1011.7
20260504231659 74 224 1.0 2.0 0.00 0.00 0.00 53 1011.8
20260504231155 74 202 0.0 0.0 0.00 0.00 0.00 54 1011.7
20260504230652 74 220 1.0 1.0 0.00 0.00 0.00 53 1011.7
20260504230151 74 231 0.0 1.0 0.00 0.00 0.00 53 1011.8
20260504225649 74 216 3.0 3.0 0.00 0.00 0.00 52 1012.0
20260504225144 74 263 2.0 2.0 0.00 0.00 0.00 52 1012.1
20260504224642 74 246 1.0 1.0 0.00 0.00 0.00 53 1011.7
20260504224138 74 235 3.0 3.0 0.00 0.00 0.00 52 1011.9
20260504223636 74 233 3.0 5.0 0.00 0.00 0.00 52 1011.8
20260504223131 75 229 3.0 3.0 0.00 0.00 0.00 51 1012.1
20260504222628 75 226 2.0 2.0 0.00 0.00 0.00 50 1011.8
20260504222125 74 198 1.0 2.0 0.00 0.00 0.00 50 1011.9
20260504221623 75 226 2.0 2.0 0.00 0.00 0.00 50 1012.0
20260504221120 75 252 4.0 5.0 0.00 0.00 0.00 49 1011.9
20260504220616 75 197 3.0 3.0 0.00 0.00 0.00 49 1012.0
20260504220114 75 223 1.0 1.0 0.00 0.00 0.00 50 1012.0
20260504215609 76 308 3.0 5.0 0.00 0.00 0.00 48 1012.0
20260504215108 76 351 2.0 3.0 0.00 0.00 0.00 46 1012.0
20260504214603 77 255 3.0 3.0 0.00 0.00 0.00 47 1012.1
20260504214059 77 221 4.0 5.0 0.00 0.00 0.00 45 1011.9
20260504213556 77 232 4.0 5.0 0.00 0.00 0.00 45 1012.0
20260504213053 78 244 4.0 5.0 0.00 0.00 0.00 43 1011.9
20260504212549 78 218 4.0 6.0 0.00 0.00 0.00 43 1012.1
20260504212046 78 237 2.0 5.0 0.00 0.00 0.00 46 1012.1
20260504211543 78 285 5.0 7.0 0.00 0.00 0.00 44 1011.9
20260504211040 78 98 3.0 5.0 0.00 0.00 0.00 44 1012.1
20260504210537 77 241 1.0 2.0 0.00 0.00 0.00 51 1011.9
20260504210034 77 225 1.0 2.0 0.00 0.00 0.00 50 1012.2
20260504205532 77 219 2.0 3.0 0.00 0.00 0.00 50 1012.3
20260504205030 77 290 3.0 3.0 0.00 0.00 0.00 49 1012.1
20260504204527 77 230 4.0 5.0 0.00 0.00 0.00 49 1012.4
20260504204026 77 350 2.0 3.0 0.00 0.00 0.00 49 1012.4
20260504203524 78 239 5.0 7.0 0.00 0.00 0.00 47 1012.6
20260504203021 77 336 5.0 6.0 0.00 0.00 0.00 51 1012.3
20260504202516 78 222 2.0 2.0 0.00 0.00 0.00 49 1012.5
20260504202013 78 208 0.0 1.0 0.00 0.00 0.00 50 1012.4
20260504201510 78 177 3.0 6.0 0.00 0.00 0.00 50 1012.5
20260504201008 78 286 3.0 5.0 0.00 0.00 0.00 53 1012.7
20260504200504 77 209 1.0 2.0 0.00 0.00 0.00 53 1012.9
20260504200001 78 236 5.0 7.0 0.00 0.00 0.00 49 1012.6
20260504195457 78 159 1.0 1.0 0.00 0.00 0.00 52 1012.9
20260504194954 77 6 2.0 2.0 0.00 0.00 0.00 52 1012.9
20260504194450 77 260 3.0 5.0 0.00 0.00 0.00 50 1013.0
20260504193945 77 222 1.0 1.0 0.00 0.00 0.00 54 1013.0
20260504193443 77 214 2.0 2.0 0.00 0.00 0.00 53 1013.0
20260504192942 78 196 1.0 1.0 0.00 0.00 0.00 50 1013.0
20260504192438 77 240 3.0 5.0 0.00 0.00 0.00 51 1013.2
20260504191937 77 221 1.0 1.0 0.00 0.00 0.00 54 1013.5
20260504191435 75 284 2.0 3.0 0.00 0.00 0.00 54 1013.3
20260504190930 76 190 4.0 6.0 0.00 0.00 0.00 54 1013.5
20260504190426 76 210 2.0 2.0 0.00 0.00 0.00 54 1013.6
20260504185923 75 343 1.0 3.0 0.00 0.00 0.00 52 1013.8
20260504185420 75 242 1.0 2.0 0.00 0.00 0.00 53 1013.8
20260504184916 76 232 6.0 8.0 0.00 0.00 0.00 51 1013.7
20260504184412 76 220 1.0 2.0 0.00 0.00 0.00 54 1013.9
20260504183908 76 215 3.0 6.0 0.00 0.00 0.00 50 1014.1
20260504183406 75 233 3.0 3.0 0.00 0.00 0.00 51 1014.1
20260504182903 75 314 7.0 10.0 0.00 0.00 0.00 52 1014.2
20260504182400 75 335 1.0 2.0 0.00 0.00 0.00 50 1014.3
20260504181856 74 293 0.0 1.0 0.00 0.00 0.00 53 1014.3
20260504181354 74 228 3.0 5.0 0.00 0.00 0.00 55 1014.2
20260504180853 75 219 4.0 6.0 0.00 0.00 0.00 54 1014.4
20260504180351 74 221 2.0 2.0 0.00 0.00 0.00 54 1014.3
20260504175849 74 218 5.0 7.0 0.00 0.00 0.00 51 1014.6
20260504175345 74 190 3.0 3.0 0.00 0.00 0.00 53 1014.6
20260504174844 73 211 6.0 7.0 0.00 0.00 0.00 53 1014.6
20260504174341 73 225 4.0 6.0 0.00 0.00 0.00 53 1014.9
20260504173838 73 188 5.0 6.0 0.00 0.00 0.00 53 1014.7
20260504173335 73 252 3.0 3.0 0.00 0.00 0.00 54 1014.9
20260504172832 73 226 3.0 3.0 0.00 0.00 0.00 52 1014.7
20260504172328 73 250 3.0 3.0 0.00 0.00 0.00 56 1014.8
20260504171824 73 269 1.0 1.0 0.00 0.00 0.00 56 1014.9
20260504171321 73 276 2.0 2.0 0.00 0.00 0.00 53 1014.9
20260504170819 73 305 1.0 2.0 0.00 0.00 0.00 55 1015.1
20260504170315 71 227 2.0 3.0 0.00 0.00 0.00 63 1015.3
20260504160233 69 230 1.0 2.0 0.00 0.00 0.00 57 1016.1
20260504150659 65 232 2.0 2.0 0.00 0.00 0.00 59 1016.6
20260504150156 65 219 3.0 5.0 0.00 0.00 0.00 57 1016.9
20260504141125 62 239 3.0 3.0 0.00 0.00 0.00 66 1017.4
20260504140621 61 223 2.0 2.0 0.00 0.00 0.00 66 1017.5
20260504140117 60 224 2.0 2.0 0.00 0.00 0.00 68 1017.6
20260504130545 56 204 1.0 1.0 0.00 0.00 0.00 74 1017.4
20260504110433 42 231 0.0 0.0 0.00 0.00 0.00 96 1016.4
20260504100349 42 205 0.0 0.0 0.00 0.00 0.00 95 1016.4
20260504081743 44 230 0.0 0.0 0.00 0.00 0.00 92 1016.7
20260504081239 44 230 0.0 0.0 0.00 0.00 0.00 92 1016.5
20260504080736 44 182 0.0 0.0 0.00 0.00 0.00 92 1016.6
20260504080232 44 182 0.0 0.0 0.00 0.00 0.00 92 1016.6